"read_dt","SO2 (ppb)","flags","PMT voltage (V)","lamp voltage (V)","lamp intensity (Hz)","internal temp (C)","react chamber temp (C)","sample flow (l/min)","pres (mmHg)","SO2 bkg (ppb)","SO2 coefficient"
2013-12-11 00:00:00,1116E-4,5C000000,-0724,0971,10815,026.8,045.3,0.395,740.9,01.18,0.508
2013-12-11 00:01:00,2098E-4,5C000000,-0724,0971,10812,026.8,045.3,0.395,740.6,01.18,0.508
2013-12-11 00:02:00,1126E-4,5C000000,-0724,0972,10847,026.8,045.3,0.395,740.6,01.18,0.508
2013-12-11 00:03:00,1799E-4,5C000000,-0724,0971,10709,026.8,045.3,0.395,740.8,01.18,0.508
2013-12-11 00:04:00,5917E-5,5C000000,-0724,0971,10902,026.8,045.3,0.394,740.6,01.18,0.508
2013-12-11 00:05:00,1209E-4,5C000000,-0724,0971,10659,026.8,045.3,0.394,740.6,01.18,0.508
2013-12-11 00:06:00,2024E-4,5C000000,-0724,0970,10856,026.8,045.3,0.394,740.9,01.18,0.508
2013-12-11 00:07:00,2101E-4,5C000000,-0724,0971,10805,026.8,045.3,0.394,740.9,01.18,0.508
2013-12-11 00:08:00,1848E-4,5C000000,-0724,0971,10766,026.7,045.3,0.394,741.0,01.18,0.508
2013-12-11 00:09:00,1035E-4,5C000000,-0724,0971,10791,026.7,045.3,0.394,741.0,01.18,0.508
2013-12-11 00:10:00,1643E-4,5C000000,-0724,0972,10813,026.7,045.3,0.394,741.0,01.18,0.508
2013-12-11 00:11:00,1563E-4,5C000000,-0724,0971,10743,026.7,045.3,0.395,741.0,01.18,0.508
2013-12-11 00:12:00,1363E-4,5C000000,-0724,0971,10718,026.7,045.3,0.395,741.0,01.18,0.508
2013-12-11 00:13:00,1609E-4,5C000000,-0724,0971,10790,026.7,045.3,0.395,741.0,01.18,0.508
2013-12-11 00:14:00,1454E-4,5C000000,-0724,0970,10828,026.7,045.3,0.395,740.7,01.18,0.508
2013-12-11 00:15:00,1531E-4,5C000000,-0724,0971,10908,026.8,045.3,0.395,741.0,01.18,0.508
2013-12-11 00:16:00,4850E-5,5C000000,-0724,0971,10822,026.8,045.3,0.395,741.0,01.18,0.508
2013-12-11 00:17:00,1173E-4,5C000000,-0724,0971,10919,026.8,045.3,0.395,741.0,01.18,0.508
2013-12-11 00:18:00,1879E-4,5C000000,-0724,0972,10846,026.8,045.3,0.394,741.0,01.18,0.508
2013-12-11 00:19:00,1154E-4,5C000000,-0724,0971,10849,026.8,045.3,0.394,741.2,01.18,0.508
2013-12-11 00:20:00,2238E-4,5C000000,-0724,0971,10912,026.8,045.3,0.395,741.3,01.18,0.508
2013-12-11 00:21:00,2518E-4,5C000000,-0724,0970,10871,026.8,045.3,0.395,741.1,01.18,0.508
2013-12-11 00:22:00,1398E-4,5C000000,-0724,0971,10790,026.7,045.3,0.395,741.2,01.18,0.508
2013-12-11 00:23:00,1121E-4,5C000000,-0724,0971,10851,026.8,045.3,0.395,741.1,01.18,0.508
2013-12-11 00:24:00,1585E-4,5C000000,-0724,0971,10741,026.8,045.3,0.395,741.2,01.18,0.508
2013-12-11 00:25:00,2270E-4,5C000000,-0724,0971,10689,026.8,045.3,0.395,741.3,01.18,0.508
2013-12-11 00:26:00,1719E-4,5C000000,-0724,0970,10800,026.8,045.3,0.395,741.2,01.18,0.508
2013-12-11 00:27:00,5597E-5,5C000000,-0724,0971,10838,026.8,045.3,0.394,740.9,01.18,0.508
2013-12-11 00:28:00,1242E-4,5C000000,-0724,0971,10708,026.8,045.3,0.394,741.1,01.18,0.508
2013-12-11 00:29:00,1283E-4,5C000000,-0724,0971,10956,026.8,045.3,0.394,741.3,01.18,0.508
2013-12-11 00:30:00,1463E-4,5C000000,-0724,0972,10857,026.8,045.3,0.395,741.3,01.18,0.508
2013-12-11 00:31:00,1073E-4,5C000000,-0724,0971,10915,026.8,045.3,0.395,741.2,01.18,0.508
2013-12-11 00:32:00,1700E-4,5C000000,-0724,0972,10972,026.8,045.3,0.395,741.3,01.18,0.508
2013-12-11 00:33:00,1786E-4,5C000000,-0724,0971,10639,026.8,045.3,0.395,741.3,01.18,0.508
2013-12-11 00:34:00,1678E-4,5C000000,-0724,0972,10953,026.8,045.3,0.395,741.3,01.18,0.508
2013-12-11 00:35:00,1292E-4,5C000000,-0724,0971,10812,026.8,045.3,0.395,741.3,01.18,0.508
2013-12-11 00:36:00,2064E-4,5C000000,-0724,0971,10692,026.8,045.3,0.395,741.3,01.18,0.508
2013-12-11 00:37:00,1107E-4,5C000000,-0724,0971,10783,026.8,045.3,0.394,741.3,01.18,0.508
2013-12-11 00:38:00,8217E-5,5C000000,-0724,0971,10956,026.8,045.3,0.395,741.4,01.18,0.508
2013-12-11 00:39:00,1611E-4,5C000000,-0724,0971,10825,026.8,045.3,0.395,741.4,01.18,0.508
2013-12-11 00:40:00,2125E-4,5C000000,-0724,0971,10754,026.8,045.3,0.395,741.3,01.18,0.508
2013-12-11 00:41:00,1836E-4,5C000000,-0724,0972,10767,026.8,045.3,0.395,741.5,01.18,0.508
2013-12-11 00:42:00,1792E-4,5C000000,-0724,0971,10714,026.8,045.3,0.395,741.7,01.18,0.508
2013-12-11 00:43:00,2107E-4,5C000000,-0724,0972,10897,026.8,045.3,0.395,741.6,01.18,0.508
2013-12-11 00:44:00,1724E-4,5C000000,-0724,0971,10676,026.8,045.3,0.395,741.5,01.18,0.508
2013-12-11 00:45:00,1728E-4,5C000000,-0724,0971,10578,026.8,045.3,0.395,741.7,01.18,0.508
2013-12-11 00:46:00,2382E-4,5C000000,-0724,0971,10684,026.8,045.3,0.395,741.7,01.18,0.508
2013-12-11 00:47:00,1338E-4,5C000000,-0724,0971,10938,026.8,045.3,0.395,741.6,01.18,0.508
2013-12-11 00:48:00,2221E-4,5C000000,-0724,0971,10682,026.8,045.3,0.395,741.7,01.18,0.508
2013-12-11 00:49:00,1244E-4,5C000000,-0724,0972,10753,026.8,045.3,0.395,741.7,01.18,0.508
2013-12-11 00:50:00,1066E-4,5C000000,-0724,0971,10783,026.8,045.3,0.395,741.8,01.18,0.508
2013-12-11 00:51:00,1215E-4,5C000000,-0724,0972,10845,026.8,045.3,0.395,741.7,01.18,0.508
2013-12-11 00:52:00,1478E-4,5C000000,-0724,0972,10751,026.8,045.3,0.395,741.8,01.18,0.508
2013-12-11 00:53:00,2682E-4,5C000000,-0724,0971,10857,026.8,045.3,0.395,741.5,01.18,0.508
2013-12-11 00:54:00,1524E-4,5C000000,-0724,0971,10664,026.8,045.3,0.395,741.5,01.18,0.508
2013-12-11 00:55:00,7707E-5,5C000000,-0724,0972,10746,026.8,045.3,0.395,741.7,01.18,0.508
2013-12-11 00:56:00,1036E-4,5C000000,-0724,0971,10792,026.8,045.3,0.395,741.8,01.18,0.508
2013-12-11 00:57:00,1947E-4,5C000000,-0724,0971,10937,026.8,045.3,0.395,741.6,01.18,0.508
2013-12-11 00:58:00,1968E-4,5C000000,-0724,0971,10821,026.8,045.3,0.395,741.7,01.18,0.508
2013-12-11 00:59:00,1076E-4,5C000000,-0724,0972,10753,026.8,045.3,0.395,741.8,01.18,0.508
2013-12-11 01:00:00,1633E-4,5C000000,-0724,0971,10718,026.8,045.3,0.395,741.8,01.18,0.508
2013-12-11 01:01:00,1651E-4,5C000000,-0724,0972,10902,026.8,045.3,0.395,741.7,01.18,0.508
2013-12-11 01:02:00,1403E-4,5C000000,-0724,0972,10666,026.8,045.3,0.395,741.8,01.18,0.508
2013-12-11 01:03:00,1668E-4,5C000000,-0724,0971,10816,026.8,045.3,0.395,741.8,01.18,0.508
2013-12-11 01:04:00,1419E-4,5C000000,-0724,0971,10762,026.8,045.3,0.395,741.7,01.18,0.508
2013-12-11 01:05:00,1948E-4,5C000000,-0724,0971,10919,026.8,045.3,0.395,741.7,01.18,0.508
2013-12-11 01:06:00,7203E-5,5C000000,-0724,0971,10783,026.8,045.3,0.395,741.5,01.18,0.508
2013-12-11 01:07:00,5573E-5,5C000000,-0724,0970,10794,026.8,045.3,0.395,741.5,01.18,0.508
2013-12-11 01:08:00,1252E-4,5C000000,-0724,0971,10788,026.8,045.3,0.395,741.6,01.18,0.508
2013-12-11 01:09:00,2522E-4,5C000000,-0724,0971,10815,026.8,045.3,0.395,741.6,01.18,0.508
2013-12-11 01:10:00,1349E-4,5C000000,-0724,0972,10844,026.8,045.3,0.395,741.4,01.18,0.508
2013-12-11 01:11:00,1595E-4,5C000000,-0724,0972,10890,026.8,045.3,0.394,741.7,01.18,0.508
2013-12-11 01:12:00,1012E-4,5C000000,-0724,0972,10826,026.8,045.3,0.395,741.6,01.18,0.508
2013-12-11 01:13:00,9476E-5,5C000000,-0724,0971,10760,026.9,045.3,0.395,741.6,01.18,0.508
2013-12-11 01:14:00,1866E-4,5C000000,-0724,0971,10903,026.8,045.3,0.395,741.6,01.18,0.508
2013-12-11 01:15:00,1764E-4,5C000000,-0724,0972,10809,026.8,045.3,0.395,741.7,01.18,0.508
2013-12-11 01:16:00,1468E-4,5C000000,-0724,0970,10791,026.8,045.3,0.395,741.7,01.18,0.508
2013-12-11 01:17:00,1505E-4,5C000000,-0724,0971,10758,026.8,045.3,0.395,741.6,01.18,0.508
2013-12-11 01:18:00,1741E-4,5C000000,-0724,0972,10951,026.9,045.3,0.395,741.7,01.18,0.508
2013-12-11 01:19:00,3388E-5,5C000000,-0724,0971,10812,026.9,045.3,0.394,741.6,01.18,0.508
2013-12-11 01:20:00,1703E-4,5C000000,-0724,0971,10715,026.9,045.3,0.395,741.3,01.18,0.508
2013-12-11 01:21:00,1054E-4,5C000000,-0724,0971,10804,026.9,045.3,0.395,741.5,01.18,0.508
2013-12-11 01:22:00,7197E-5,5C000000,-0724,0971,10767,026.9,045.3,0.395,741.5,01.18,0.508
2013-12-11 01:23:00,1034E-4,5C000000,-0724,0971,10901,026.9,045.3,0.395,741.4,01.18,0.508
2013-12-11 01:24:00,1557E-4,5C000000,-0724,0972,10800,026.9,045.3,0.395,741.4,01.18,0.508
2013-12-11 01:25:00,1192E-4,5C000000,-0724,0971,10814,026.9,045.3,0.395,741.5,01.18,0.508
2013-12-11 01:26:00,1760E-4,5C000000,-0724,0971,10787,026.9,045.3,0.395,741.4,01.18,0.508
2013-12-11 01:27:00,1117E-4,5C000000,-0724,0972,10847,026.9,045.3,0.395,741.6,01.18,0.508
2013-12-11 01:28:00,5163E-5,5C000000,-0724,0971,10870,026.8,045.3,0.395,741.6,01.18,0.508
2013-12-11 01:29:00,1833E-4,5C000000,-0724,0973,10759,026.8,045.3,0.395,741.5,01.18,0.508
2013-12-11 01:30:00,1563E-4,5C000000,-0724,0971,10644,026.8,045.3,0.395,741.7,01.18,0.508
2013-12-11 01:31:00,1241E-4,5C000000,-0724,0972,10815,026.8,045.3,0.395,741.7,01.18,0.508
2013-12-11 01:32:00,4959E-5,5C000000,-0724,0971,10867,026.9,045.3,0.395,741.6,01.18,0.508
2013-12-11 01:33:00,6646E-5,5C000000,-0724,0971,10844,026.8,045.3,0.395,741.5,01.18,0.508
2013-12-11 01:34:00,1584E-4,5C000000,-0724,0972,10837,026.9,045.3,0.395,741.6,01.18,0.508
2013-12-11 01:35:00,7634E-5,5C000000,-0724,0972,10861,026.8,045.3,0.395,741.7,01.18,0.508
2013-12-11 01:36:00,2290E-4,5C000000,-0724,0972,10797,026.8,045.3,0.394,741.5,01.18,0.508
2013-12-11 01:37:00,1877E-4,5C000000,-0724,0971,10826,026.8,045.3,0.395,741.5,01.18,0.508
2013-12-11 01:38:00,1858E-4,5C000000,-0724,0972,10813,026.8,045.3,0.395,741.6,01.18,0.508
2013-12-11 01:39:00,1123E-4,5C000000,-0724,0971,10853,026.9,045.3,0.395,741.7,01.18,0.508
2013-12-11 01:40:00,1007E-4,5C000000,-0724,0972,10776,026.8,045.3,0.395,741.7,01.18,0.508
2013-12-11 01:41:00,1172E-4,5C000000,-0724,0972,10838,026.8,045.3,0.395,741.8,01.18,0.508
2013-12-11 01:42:00,1677E-4,5C000000,-0724,0972,10667,026.8,045.3,0.395,741.8,01.18,0.508
2013-12-11 01:43:00,1187E-4,5C000000,-0724,0970,10691,026.8,045.3,0.395,741.8,01.18,0.508
2013-12-11 01:44:00,2049E-4,5C000000,-0724,0971,10906,026.8,045.3,0.396,741.8,01.18,0.508
2013-12-11 01:45:00,1573E-4,5C000000,-0724,0971,10617,026.8,045.3,0.395,741.7,01.18,0.508
2013-12-11 01:46:00,1241E-4,5C000000,-0724,0971,10744,026.8,045.3,0.395,741.8,01.18,0.508
2013-12-11 01:47:00,1365E-4,5C000000,-0724,0971,10820,026.8,045.3,0.395,741.8,01.18,0.508
2013-12-11 01:48:00,1769E-4,5C000000,-0724,0972,10809,026.8,045.3,0.395,741.8,01.18,0.508
2013-12-11 01:49:00,1518E-4,5C000000,-0724,0971,10767,026.8,045.3,0.395,741.7,01.18,0.508
2013-12-11 01:50:00,1516E-4,5C000000,-0724,0971,10944,026.8,045.3,0.395,741.8,01.18,0.508
2013-12-11 01:51:00,1377E-4,5C000000,-0724,0972,10836,026.8,045.3,0.395,741.8,01.18,0.508
2013-12-11 01:52:00,5847E-5,5C000000,-0724,0971,10805,026.8,045.3,0.395,741.8,01.18,0.508
2013-12-11 01:53:00,1459E-4,5C000000,-0724,0971,10868,026.9,045.3,0.395,741.8,01.18,0.508
2013-12-11 01:54:00,6681E-5,5C000000,-0724,0973,10779,026.8,045.3,0.395,741.9,01.18,0.508
2013-12-11 01:55:00,1076E-4,5C000000,-0724,0971,10828,026.8,045.3,0.395,741.9,01.18,0.508
2013-12-11 01:56:00,1102E-4,5C000000,-0724,0971,10770,026.8,045.3,0.395,741.9,01.18,0.508
2013-12-11 01:57:00,1380E-4,5C000000,-0724,0972,10656,026.8,045.3,0.396,741.9,01.18,0.508
2013-12-11 01:58:00,1237E-4,5C000000,-0724,0971,10776,026.9,045.3,0.395,741.9,01.18,0.508
2013-12-11 01:59:00,1507E-4,5C000000,-0724,0972,10906,026.8,045.3,0.395,741.8,01.18,0.508
2013-12-11 02:00:00,1114E-4,5C000000,-0724,0971,10626,026.9,045.3,0.395,741.8,01.18,0.508
2013-12-11 02:01:00,9499E-5,5C000000,-0724,0972,10872,026.9,045.3,0.395,742.0,01.18,0.508
2013-12-11 02:02:00,1189E-4,5C000000,-0724,0971,10895,026.9,045.3,0.395,741.7,01.18,0.508
2013-12-11 02:03:00,2101E-4,5C000000,-0724,0972,10813,026.9,045.3,0.395,741.8,01.18,0.508
2013-12-11 02:04:00,1311E-4,5C000000,-0724,0971,10870,026.8,045.3,0.395,742.0,01.18,0.508
2013-12-11 02:05:00,1071E-4,5C000000,-0724,0972,10992,026.9,045.3,0.395,741.8,01.18,0.508
2013-12-11 02:06:00,1635E-4,5C000000,-0724,0971,10763,026.8,045.3,0.395,741.9,01.18,0.508
2013-12-11 02:07:00,2457E-5,5C000000,-0724,0972,10921,026.9,045.3,0.395,741.8,01.18,0.508
2013-12-11 02:08:00,1400E-4,5C000000,-0724,0972,10700,026.8,045.3,0.395,741.9,01.18,0.508
2013-12-11 02:09:00,2316E-4,5C000000,-0724,0972,10718,026.9,045.3,0.395,741.8,01.18,0.508
2013-12-11 02:10:00,1139E-4,5C000000,-0724,0972,10710,026.9,045.3,0.395,741.8,01.18,0.508
2013-12-11 02:11:00,1494E-4,5C000000,-0724,0972,10705,026.8,045.3,0.395,741.8,01.18,0.508
2013-12-11 02:12:00,1532E-4,5C000000,-0724,0971,10692,026.9,045.3,0.395,741.7,01.18,0.508
2013-12-11 02:13:00,1453E-4,5C000000,-0724,0971,10829,026.8,045.3,0.395,741.7,01.18,0.508
2013-12-11 02:14:00,1705E-4,5C000000,-0724,0971,10843,026.9,045.3,0.395,741.9,01.18,0.508
2013-12-11 02:15:00,1200E-4,5C000000,-0724,0972,10848,026.8,045.3,0.395,741.9,01.18,0.508
2013-12-11 02:16:00,1012E-4,5C000000,-0724,0971,10870,026.9,045.3,0.395,742.0,01.18,0.508
2013-12-11 02:17:00,2313E-4,5C000000,-0724,0972,10897,026.9,045.3,0.395,742.0,01.18,0.508
2013-12-11 02:18:00,1641E-4,5C000000,-0724,0970,10801,026.8,045.3,0.395,742.0,01.18,0.508
2013-12-11 02:19:00,1756E-4,5C000000,-0724,0971,10925,026.9,045.3,0.395,742.0,01.18,0.508
2013-12-11 02:20:00,1401E-4,5C000000,-0724,0971,10849,026.9,045.3,0.395,742.0,01.18,0.508
2013-12-11 02:21:00,1263E-4,5C000000,-0724,0971,10868,026.9,045.3,0.395,742.1,01.18,0.508
2013-12-11 02:22:00,1528E-4,5C000000,-0724,0972,10819,026.9,045.3,0.395,742.0,01.18,0.508
2013-12-11 02:23:00,1088E-4,5C000000,-0724,0971,10867,026.9,045.3,0.396,742.0,01.18,0.508
2013-12-11 02:24:00,8517E-5,5C000000,-0724,0972,10942,026.8,045.3,0.395,742.0,01.18,0.508
2013-12-11 02:25:00,1138E-4,5C000000,-0724,0971,10902,026.8,045.3,0.395,741.8,01.18,0.508
2013-12-11 02:26:00,8105E-5,5C000000,-0724,0971,10839,026.8,045.3,0.395,741.9,01.18,0.508
2013-12-11 02:27:00,1172E-4,5C000000,-0724,0971,10731,026.9,045.3,0.395,742.1,01.18,0.508
2013-12-11 02:28:00,2807E-4,5C000000,-0724,0971,10775,026.8,045.3,0.395,741.8,01.18,0.508
2013-12-11 02:29:00,1374E-4,5C000000,-0724,0972,10878,026.9,045.3,0.395,741.8,01.18,0.508
2013-12-11 02:30:00,1681E-4,5C000000,-0724,0971,10853,026.8,045.3,0.395,742.1,01.18,0.508
2013-12-11 02:31:00,1124E-4,5C000000,-0724,0971,10797,026.8,045.3,0.395,742.2,01.18,0.508
2013-12-11 02:32:00,1816E-4,5C000000,-0724,0971,10879,026.9,045.3,0.396,742.1,01.18,0.508
2013-12-11 02:33:00,1393E-4,5C000000,-0724,0972,10839,026.9,045.3,0.395,742.2,01.18,0.508
2013-12-11 02:34:00,1086E-4,5C000000,-0724,0971,10757,026.9,045.3,0.395,742.2,01.18,0.508
2013-12-11 02:35:00,1694E-4,5C000000,-0724,0971,10794,026.9,045.3,0.395,742.2,01.18,0.508
2013-12-11 02:36:00,1376E-4,5C000000,-0724,0972,10885,026.9,045.3,0.395,742.2,01.18,0.508
2013-12-11 02:37:00,1386E-4,5C000000,-0724,0971,10840,026.9,045.3,0.396,742.2,01.18,0.508
2013-12-11 02:38:00,1330E-4,5C000000,-0724,0971,10848,026.9,045.3,0.395,742.0,01.18,0.508
2013-12-11 02:39:00,1705E-4,5C000000,-0724,0971,10820,026.9,045.3,0.395,742.1,01.18,0.508
2013-12-11 02:40:00,1548E-4,5C000000,-0724,0972,10782,026.9,045.3,0.395,742.2,01.18,0.508
2013-12-11 02:41:00,1506E-4,5C000000,-0724,0972,10840,026.9,045.3,0.395,742.2,01.18,0.508
2013-12-11 02:42:00,1906E-4,5C000000,-0724,0970,10709,026.9,045.3,0.395,742.0,01.18,0.508
2013-12-11 02:43:00,1513E-4,5C000000,-0724,0971,10824,027.0,045.3,0.395,742.1,01.18,0.508
2013-12-11 02:44:00,1590E-4,5C000000,-0724,0972,10790,027.0,045.3,0.395,742.2,01.18,0.508
2013-12-11 02:45:00,1614E-4,5C000000,-0724,0972,10812,027.0,045.3,0.395,742.1,01.18,0.508
2013-12-11 02:46:00,2148E-4,5C000000,-0724,0971,10756,027.0,045.3,0.396,742.2,01.18,0.508
2013-12-11 02:47:00,1715E-4,5C000000,-0724,0971,10892,026.9,045.3,0.395,742.2,01.18,0.508
2013-12-11 02:48:00,1591E-4,5C000000,-0724,0972,10670,026.9,045.3,0.395,742.2,01.18,0.508
2013-12-11 02:49:00,1551E-4,5C000000,-0724,0971,10758,026.9,045.3,0.395,742.0,01.18,0.508
2013-12-11 02:50:00,1370E-4,5C000000,-0724,0971,10825,026.9,045.3,0.395,742.2,01.18,0.508
2013-12-11 02:51:00,1558E-4,5C000000,-0724,0971,10708,026.9,045.3,0.395,741.9,01.18,0.508
2013-12-11 02:52:00,1283E-4,5C000000,-0724,0971,10681,026.9,045.3,0.395,742.0,01.18,0.508
2013-12-11 02:53:00,1503E-4,5C000000,-0724,0971,10851,026.9,045.3,0.395,742.1,01.18,0.508
2013-12-11 02:54:00,1662E-4,5C000000,-0724,0972,10697,027.0,045.3,0.395,742.2,01.18,0.508
2013-12-11 02:55:00,1403E-4,5C000000,-0724,0971,10763,027.0,045.3,0.395,742.0,01.18,0.508
2013-12-11 02:56:00,2459E-4,5C000000,-0724,0972,10821,026.9,045.3,0.395,742.2,01.18,0.508
2013-12-11 02:57:00,1994E-4,5C000000,-0724,0972,10659,027.0,045.3,0.395,742.2,01.18,0.508
2013-12-11 02:58:00,1995E-4,5C000000,-0724,0971,10934,026.9,045.3,0.395,742.2,01.18,0.508
2013-12-11 02:59:00,2633E-4,5C000000,-0724,0972,10711,026.9,045.3,0.395,742.2,01.18,0.508
2013-12-11 03:00:00,1892E-4,5C000000,-0724,0971,10848,027.0,045.3,0.395,742.2,01.18,0.508
2013-12-11 03:01:00,9724E-5,5C000000,-0724,0971,10718,026.9,045.3,0.395,742.1,01.18,0.508
2013-12-11 03:02:00,1690E-4,5C000000,-0724,0973,10836,027.0,045.3,0.395,742.1,01.18,0.508
2013-12-11 03:03:00,1733E-4,5C000000,-0724,0972,10837,027.0,045.3,0.395,742.2,01.18,0.508
2013-12-11 03:04:00,1194E-4,5C000000,-0724,0972,10828,027.0,045.3,0.395,742.0,01.18,0.508
2013-12-11 03:05:00,1051E-4,5C000000,-0724,0972,10903,027.0,045.3,0.395,742.1,01.18,0.508
2013-12-11 03:06:00,7684E-5,5C000000,-0724,0973,10833,027.0,045.3,0.395,742.2,01.18,0.508
2013-12-11 03:07:00,1632E-4,5C000000,-0724,0972,10845,027.0,045.3,0.395,742.2,01.18,0.508
2013-12-11 03:08:00,1167E-4,5C000000,-0724,0972,10860,027.0,045.3,0.395,742.2,01.18,0.508
2013-12-11 03:09:00,1111E-4,5C000000,-0724,0971,10889,027.0,045.3,0.395,742.3,01.18,0.508
2013-12-11 03:10:00,2113E-4,5C000000,-0724,0972,10926,027.0,045.3,0.395,742.3,01.18,0.508
2013-12-11 03:11:00,1386E-4,5C000000,-0724,0972,10778,027.0,045.3,0.395,742.2,01.18,0.508
2013-12-11 03:12:00,1456E-4,5C000000,-0724,0972,10782,027.0,045.3,0.396,742.3,01.18,0.508
2013-12-11 03:13:00,1514E-4,5C000000,-0724,0972,10850,027.0,045.3,0.395,742.3,01.18,0.508
2013-12-11 03:14:00,8759E-5,5C000000,-0724,0972,10720,027.0,045.3,0.395,742.4,01.18,0.508
2013-12-11 03:15:00,1084E-4,5C000000,-0724,0972,10690,027.0,045.3,0.395,742.4,01.18,0.508
2013-12-11 03:16:00,1709E-4,5C000000,-0724,0971,10756,027.0,045.3,0.396,742.4,01.18,0.508
2013-12-11 03:17:00,2041E-4,5C000000,-0724,0971,10837,027.0,045.3,0.395,742.3,01.18,0.508
2013-12-11 03:18:00,1579E-4,5C000000,-0724,0972,10684,027.0,045.3,0.395,742.2,01.18,0.508
2013-12-11 03:19:00,1172E-5,5C000000,-0724,0972,10789,027.0,045.3,0.395,742.4,01.18,0.508
2013-12-11 03:20:00,9061E-5,5C000000,-0724,0973,10881,027.0,045.3,0.395,742.4,01.18,0.508
2013-12-11 03:21:00,8555E-5,5C000000,-0724,0972,10703,027.0,045.3,0.395,742.2,01.18,0.508
2013-12-11 03:22:00,8246E-5,5C000000,-0724,0971,10719,027.0,045.3,0.395,742.3,01.18,0.508
2013-12-11 03:23:00,1736E-4,5C000000,-0724,0972,10916,027.0,045.3,0.395,742.4,01.18,0.508
2013-12-11 03:24:00,1600E-4,5C000000,-0724,0972,10888,027.0,045.3,0.395,742.4,01.18,0.508
2013-12-11 03:25:00,2431E-4,5C000000,-0724,0972,10798,027.0,045.3,0.395,742.3,01.18,0.508
2013-12-11 03:26:00,1809E-4,5C000000,-0724,0971,10858,027.0,045.3,0.395,742.4,01.18,0.508
2013-12-11 03:27:00,1133E-4,5C000000,-0724,0972,10851,027.0,045.3,0.395,742.4,01.18,0.508
2013-12-11 03:28:00,1680E-4,5C000000,-0724,0972,10827,027.0,045.3,0.395,742.3,01.18,0.508
2013-12-11 03:29:00,6129E-5,5C000000,-0724,0972,10834,027.0,045.3,0.395,742.3,01.18,0.508
2013-12-11 03:30:00,6361E-5,5C000000,-0724,0972,10607,027.0,045.3,0.395,742.4,01.18,0.508
2013-12-11 03:31:00,1367E-4,5C000000,-0724,0972,10930,027.0,045.3,0.395,742.1,01.18,0.508
2013-12-11 03:32:00,1041E-4,5C000000,-0724,0972,10897,027.0,045.3,0.395,742.2,01.18,0.508
2013-12-11 03:33:00,1694E-4,5C000000,-0724,0972,10847,027.1,045.3,0.395,742.4,01.18,0.508
2013-12-11 03:34:00,7776E-5,5C000000,-0724,0972,10743,027.1,045.3,0.395,742.2,01.18,0.508
2013-12-11 03:35:00,1540E-4,5C000000,-0724,0972,10784,027.0,045.3,0.395,742.3,01.18,0.508
2013-12-11 03:36:00,1481E-4,5C000000,-0724,0972,10862,027.1,045.3,0.395,742.3,01.18,0.508
2013-12-11 03:37:00,1908E-4,5C000000,-0724,0971,10885,027.1,045.3,0.395,742.4,01.18,0.508
2013-12-11 03:38:00,1426E-4,5C000000,-0724,0972,10883,027.0,045.3,0.395,742.4,01.18,0.508
2013-12-11 03:39:00,1071E-4,5C000000,-0724,0972,10924,027.0,045.3,0.395,742.5,01.18,0.508
2013-12-11 03:40:00,6817E-5,5C000000,-0724,0971,10744,027.1,045.3,0.396,742.5,01.18,0.508
2013-12-11 03:41:00,1766E-4,5C000000,-0724,0972,10804,027.0,045.3,0.395,742.4,01.18,0.508
2013-12-11 03:42:00,2087E-4,5C000000,-0724,0971,10742,027.0,045.3,0.395,742.5,01.18,0.508
2013-12-11 03:43:00,1406E-4,5C000000,-0724,0972,10721,027.0,045.3,0.395,742.6,01.18,0.508
2013-12-11 03:44:00,1301E-4,5C000000,-0724,0971,10847,027.0,045.3,0.395,742.3,01.18,0.508
2013-12-11 03:45:00,1485E-4,5C000000,-0724,0972,10845,027.1,045.3,0.395,742.4,01.18,0.508
2013-12-11 03:46:00,1135E-4,5C000000,-0724,0972,10811,027.1,045.3,0.395,742.4,01.18,0.508
2013-12-11 03:47:00,9006E-5,5C000000,-0724,0972,10865,027.1,045.3,0.395,742.1,01.18,0.508
2013-12-11 03:48:00,1126E-4,5C000000,-0724,0972,10794,027.1,045.3,0.396,742.2,01.18,0.508
2013-12-11 03:49:00,1591E-4,5C000000,-0724,0972,10739,027.1,045.3,0.395,742.2,01.18,0.508
2013-12-11 03:50:00,1622E-4,5C000000,-0724,0972,10818,027.1,045.3,0.395,742.3,01.18,0.508
2013-12-11 03:51:00,1517E-4,5C000000,-0724,0973,10776,027.1,045.3,0.395,742.4,01.18,0.508
2013-12-11 03:52:00,1287E-4,5C000000,-0724,0971,10874,027.1,045.3,0.395,742.3,01.18,0.508
2013-12-11 03:53:00,9888E-5,5C000000,-0724,0972,10931,027.1,045.3,0.395,742.3,01.18,0.508
2013-12-11 03:54:00,4289E-5,5C000000,-0724,0972,10911,027.1,045.3,0.395,742.4,01.18,0.508
2013-12-11 03:55:00,1352E-4,5C000000,-0724,0972,10853,027.1,045.3,0.395,742.5,01.18,0.508
2013-12-11 03:56:00,1485E-4,5C000000,-0724,0972,10851,027.1,045.3,0.395,742.4,01.18,0.508
2013-12-11 03:57:00,1228E-4,5C000000,-0724,0971,10768,027.1,045.3,0.395,742.2,01.18,0.508
2013-12-11 03:58:00,1856E-4,5C000000,-0724,0971,10749,027.1,045.3,0.395,742.3,01.18,0.508
2013-12-11 03:59:00,1268E-4,5C000000,-0724,0971,10765,027.1,045.3,0.395,742.4,01.18,0.508
2013-12-11 04:00:00,9942E-5,5C000000,-0724,0972,10700,027.1,045.3,0.395,742.3,01.18,0.508
2013-12-11 04:01:00,6358E-5,5C000000,-0724,0972,10850,027.1,045.3,0.395,742.4,01.18,0.508
2013-12-11 04:02:00,1402E-4,5C000000,-0724,0973,10802,027.1,045.3,0.395,742.5,01.18,0.508
2013-12-11 04:03:00,3425E-5,5C000000,-0724,0971,10818,027.1,045.3,0.395,742.5,01.18,0.508
2013-12-11 04:04:00,1657E-4,5C000000,-0724,0972,10633,027.1,045.3,0.395,742.5,01.18,0.508
2013-12-11 04:05:00,1333E-4,5C000000,-0724,0973,10812,027.1,045.3,0.395,742.6,01.18,0.508
2013-12-11 04:06:00,6621E-5,5C000000,-0724,0972,10737,027.1,045.3,0.395,742.6,01.18,0.508
2013-12-11 04:07:00,8720E-5,5C000000,-0724,0973,10773,027.1,045.3,0.396,742.5,01.18,0.508
2013-12-11 04:08:00,1801E-4,5C000000,-0724,0973,10944,027.1,045.3,0.395,742.7,01.18,0.508
2013-12-11 04:09:00,9577E-5,5C000000,-0724,0971,10846,027.1,045.3,0.395,742.6,01.18,0.508
2013-12-11 04:10:00,1395E-4,5C000000,-0724,0971,10818,027.1,045.3,0.395,742.4,01.18,0.508
2013-12-11 04:11:00,1166E-4,5C000000,-0724,0972,10852,027.1,045.3,0.395,742.4,01.18,0.508
2013-12-11 04:12:00,2482E-4,5C000000,-0724,0973,10848,027.1,045.3,0.395,742.6,01.18,0.508
2013-12-11 04:13:00,1122E-4,5C000000,-0724,0972,10822,027.1,045.3,0.395,742.3,01.18,0.508
2013-12-11 04:14:00,1169E-4,5C000000,-0724,0971,10758,027.1,045.3,0.395,742.5,01.18,0.508
2013-12-11 04:15:00,1508E-4,5C000000,-0724,0971,10837,027.1,045.3,0.395,742.6,01.18,0.508
2013-12-11 04:16:00,1758E-4,5C000000,-0724,0972,10850,027.1,045.3,0.395,742.6,01.18,0.508
2013-12-11 04:17:00,1384E-4,5C000000,-0724,0971,10820,027.1,045.3,0.395,742.8,01.18,0.508
2013-12-11 04:18:00,9025E-5,5C000000,-0724,0972,10822,027.1,045.3,0.396,742.8,01.18,0.508
2013-12-11 04:19:00,1303E-4,5C000000,-0724,0972,10872,027.2,045.3,0.395,742.4,01.18,0.508
2013-12-11 04:20:00,7222E-5,5C000000,-0724,0972,10790,027.2,045.3,0.395,742.6,01.18,0.508